Location: Unspecified
(0.0000°N, 0.0000°E)
Time: 17:57:09
(UTC+00:00)

Hubble Space Telescope - Visible Passes

Search period start: 17 January 2019 00:00
Search period end: 27 January 2019 00:00
Orbit: 537 x 540 km, 28.5° (Epoch: 17 January)

Date Brightness Start Highest point End Pass type
(mag) Time Alt. Az. Time Alt. Az. Time Alt. Az.
24 Jan 3.2 20:09:36 10° SSW 20:10:51 15° S 20:10:51 15° S visible
25 Jan 2.6 19:58:40 10° SSW 20:01:02 22° S 20:01:02 22° S visible
26 Jan 1.9 19:47:53 10° SW 19:51:16 33° SSE 19:51:16 33° SSE visible
